Weather History for KBKW - January, 2013

Change the Weather History Date:

Wednesday, January 23, 2013

  Actual Average Record
Temperature  
Mean Temperature 18 °F 31 °F  
Max Temperature 26 °F 40 °F 68 °F (1914)
Min Temperature 9 °F 23 °F -19 °F (1936)
Degree Days  
Heating Degree Days 47 34  
Month to date heating degree days 657 782  
Since 1 July heating degree days 2679 2875  
Cooling Degree Days 0 0  
Month to date cooling degree days 0 0  
Year to date cooling degree days 0 0  
Moisture  
Dew Point 1 °F    
Average Humidity 49    
Maximum Humidity 63    
Minimum Humidity 34    
Precipitation  
Precipitation T in 0.08 in 0.93 in (1992)
Month to date precipitation 2.48 2.09  
Year to date precipitation 2.48 2.09  
Snow  
Snow T in - - ()
Month to date snowfall 0.8  
Since 1 September snowfall 39.0  
Snow Depth 0.00 in    
Sea Level Pressure  
Sea Level Pressure 30.26 in    
Wind  
Wind Speed 8 mph (West)    
Max Wind Speed 18 mph    
Max Gust Speed 23 mph    
Visibility 10 miles    
Events Snow    
T = Trace of Precipitation, MM = Missing Value Source: NWS Daily Summary

Daily Weather History Graph

Daily Weather History Graph

Search for Another Location

Airport or City:

Trip Planner

Search our weather history database for the weather conditions in past years. The results will help you decide how hot, cold, wet, or windy it might be!

Date:

Astronomy

Jan. 23, 2013 Rise Set
Actual Time 7:34 AM EST 5:38 PM EST
Civil Twilight 7:06 AM EST 6:06 PM EST
Nautical Twilight 6:34 AM EST 6:38 PM EST
Astronomical Twilight 6:03 AM EST 7:09 PM EST
Moon 2:48 PM EST 4:44 AM EST
Length of Visible Light 10h 59m
Length of Day
10h 03m
Waxing Gibbous, 89% of the Moon is Illuminated
Jan 23
Waxing Gibbous
Jan 26
Full
Feb 3
Last Quarter
Feb 10
New
Feb 17
First Quarter

Hourly Weather History & Observations

Time (EST) Temp. Windchill Dew Point Humidity Pressure Visibility Wind Dir Wind Speed Gust Speed Precip Events Conditions
12:51 AM 12.0 °F -0.4 °F -4.0 °F 49% 30.33 in 10.0 mi West 9.2 mph - N/A   Overcast
1:51 AM 12.0 °F -1.3 °F -4.0 °F 49% 30.33 in 10.0 mi WNW 10.4 mph - N/A   Overcast
2:51 AM 10.9 °F -3.4 °F -5.1 °F 49% 30.34 in 10.0 mi WNW 11.5 mph - N/A   Scattered Clouds
3:51 AM 10.0 °F -2.9 °F -4.0 °F 53% 30.34 in 10.0 mi WNW 9.2 mph - N/A   Scattered Clouds
4:51 AM 9.0 °F -2.2 °F -2.9 °F 59% 30.34 in 10.0 mi WNW 6.9 mph - N/A   Clear
5:51 AM 9.0 °F -3.2 °F -4.0 °F 56% 30.35 in 10.0 mi WNW 8.1 mph - N/A   Clear
6:51 AM 9.0 °F -0.9 °F -4.0 °F 56% 30.36 in 10.0 mi WNW 5.8 mph - N/A   Clear
7:51 AM 9.0 °F 2.4 °F -2.9 °F 59% 30.37 in 10.0 mi WSW 3.5 mph - N/A   Clear
8:51 AM 10.9 °F -1.8 °F -2.0 °F 56% 30.38 in 10.0 mi West 9.2 mph - N/A   Clear
9:51 AM 14.0 °F 0.5 °F -2.9 °F 47% 30.38 in 10.0 mi West 11.5 mph 18.4 mph N/A   Clear
10:51 AM 17.1 °F 5.0 °F -4.0 °F 39% 30.37 in 10.0 mi WSW 10.4 mph 18.4 mph N/A   Mostly Cloudy
11:51 AM 19.0 °F 4.5 °F -6.0 °F 33% 30.34 in 10.0 mi West 16.1 mph 21.9 mph N/A   Overcast
12:51 PM 19.4 °F 4.5 °F -5.8 °F 33% 30.13 in 10.0 mi West 17.3 mph 23.0 mph N/A   Overcast
1:51 PM 21.0 °F 10.6 °F -2.0 °F 36% 30.27 in 10.0 mi West 9.2 mph 17.3 mph N/A   Overcast
2:51 PM 19.9 °F 7.9 °F 6.1 °F 55% 30.27 in 7.0 mi West 11.5 mph - 0.00 in Snow Light Snow
3:51 PM 19.0 °F 8.2 °F 8.1 °F 62% 30.26 in 9.0 mi WSW 9.2 mph - 0.00 in Snow Light Snow
4:51 PM 19.0 °F 11.1 °F 9.0 °F 65% 30.25 in 10.0 mi WSW 5.8 mph - 0.00 in   Overcast
5:51 PM 19.9 °F 14.9 °F 9.0 °F 62% 30.21 in 10.0 mi WSW 3.5 mph - N/A   Overcast
6:51 PM 19.9 °F - 9.0 °F 62% 30.19 in 10.0 mi Calm Calm - N/A   Overcast
7:51 PM 21.0 °F - 9.0 °F 60% 30.17 in 10.0 mi Calm Calm - N/A   Overcast
8:51 PM 21.2 °F 12.6 °F 10.4 °F 63% 29.97 in 10.0 mi SSW 6.9 mph - N/A   Overcast
9:51 PM 23.0 °F 18.4 °F 10.9 °F 60% 30.10 in 10.0 mi WSW 3.5 mph - N/A   Overcast
10:51 PM 24.1 °F 19.7 °F 12.0 °F 60% 30.08 in 10.0 mi WSW 3.5 mph - N/A   Overcast
11:51 PM 26.1 °F 18.4 °F 12.9 °F 58% 30.06 in 10.0 mi West 6.9 mph - N/A   Overcast